Погода в Череповеце

Погода в Череповеце : погода сейчас, прогноз погоды и архив. Всё, что Вы хотите узнать о погоде в Череповеце!

Хотите узнать прогноз погоды в Череповеце? Тогда Вам сюда: Погода в Череповеце

Поиск расширенной информации на нашем сайте:

Другие новости

Новости СМИ2

Главная страница сайта

Новости сайта

03.07.2017

Напоминаем, что на нашем специализированном сайте Метеоцентр.Азия вы можете получить высокодетализированные автоматические прогнозы погоды по пунктам России, СНГ и мира в авиационном формате (включающие направление и скорость ветра, видимость, явления погоды, количество и форму облачности, нижнюю и верхнюю границу облачности).


Погода в Череповеце - сегодня

Время (UTC), дата Ветер
(°,м/с) 
Видим.   Явления Облачность Т
(°С)
Тd
(°С)
f(%) Тe
(°С)
Pmin
(гПа)
dP
(гПа)
Po
(мм)
O2
(г/м3)
Тmin Tmax R s Состояние
почвы
06 15.08.18 110 (В) 10 км    10/4 600 м кучево-дожд., средняя 
[Cb calv|Ac trans]
+15.4 +13.1 86 +23  1012.4  -0.9  749  283           
09 15.08.18 090 (В) 5000 м  слаб. ливневой дождь  10/4 600 м кучево-дожд., средняя 
[Cb calv|Ac trans]
+15.2 +13.8 91 +23  1011.9  -0.5  749  283           
15 15.08.18 030 (СВ) 3100 м  дождь  10/8 120 м средняя 
[Frnb|As op]
+14.1 +13.4 96 +20  1009.2  -1.1  746  283    +15.8     
06 16.08.18 020 (С) 10 км    6/4 300 м средняя 
[St|Ac trans]
+15.3 +12.8 85 +20  1015.4  751  284           
09 16.08.18 350 (С) 10 км    6/4 600 м средняя 
[Cu med, cong|Ac trans]
+18.6 +11.5 63 +22  1016.8  1.5  752  282           
12 16.08.18 350 (С) 10 км    6/4 600 м средняя 
[Cu med, cong|Ac trans]
+19.8 +5.4 39 +20  1018.3  1.5  753  282           
18 16.08.18 тихо ()   10 км    ясно 
+11.6 +10.6 94 +13  1021.2  1.4  755  290           
21 16.08.18 тихо ()   10 км  местами туман поземный  ясно 
+7.7 +7.3 97 +8  1022.8  1.3  756  295           
00 17.08.18 тихо ()   10 км  местами туман поземный  ясно 
+6.6 +6.2 97 +7  1024  1.2  757  297           
06 17.08.18 тихо ()   10 км    1/0 средняя 
[Ac trans]
+16.1 +11.7 75 +19  1025.4  0.6  758  286           
09 17.08.18 270 (З) 10 км    3/3 600 м верхняя 
[Cu med, cong|Ci fib]
+19.9 +9.2 50 +21  1024.9  -0.3  758  283           
12 17.08.18 040 (СВ) 10 км    5/3 600 м верхняя 
[Cu med, cong|Ci fib]
+21.3 +8.4 44 +21  1024.3  -0.5  758  282           
18 17.08.18 020 (С) 10 км    6/1 1000 м верхняя 
[Sc|Ci fib]
+12.6 +11.7 94 +17  1023.8  -0.2  757  289           
21 17.08.18 тихо ()   10 км  местами туман поземный  4/0 верхняя 
[Ci fib]
+9.4 +9 97 +9  1024.3  0.3  757  293           
06 18.08.18 220 (ЮЗ) 10 км  {туман}  1/1 300 м 
[Sc]
+16.8 +12.9 78 +23  1024.4  -0.2  758  285           
09 18.08.18 200 (Ю) 10 км    4/4 600 м 
[Cu med, cong]
+21.7 +11.3 52 +24  1023.5  -0.7  757  281           
18 18.08.18 180 (Ю) 10 км    3/0 средняя 
[Ac trans]
+16.1 +11.7 75 +20  1021.7  -0.1  756  285           
21 18.08.18 тихо ()   10 км    8/0 средняя 
[Ac trans]
+14 +12.5 91 +18  1021.1  -0.6  755  287           
00 19.08.18 тихо ()   10 км    9/0 средняя 
[Ac trans]
+13.9 +13.2 96 +19  1020.5  -0.6  755  287           
06 19.08.18 180 (Ю) 10 км    4/0 средняя 
[Ac trans]
+19.8 +12.9 64 +25  1017.9  -1.4  753  280           
09 19.08.18 210 (ЮЗ) 10 км    4/3 600 м средняя, верхняя 
[Cu med, cong|Ac trans|Ci fib]
+23.6 +13.7 54 +30  1016.1  -1.6  752  276           
18 19.08.18 200 (Ю) 10 км  в посл. час ливневой дождь  8/4 600 м кучево-дожд., средняя 
[Cb calv|Ac trans]
+18.9 +15.9 83 +29  1011  -1.4  748  278           
21 19.08.18 260 (З) 10 км  в посл. час ливневой дождь  10/4 600 м кучево-дожд., средняя 
[Cb calv|Ac trans]
+17.9 +15.9 88 +28  1011  748  279           
03 20.08.18 220 (ЮЗ) 10 км    8/6 450 м кучево-дожд., средняя, верхняя 
[Cb calv|Ac trans|Ci fib]
+14.7 +13.6 93 +22  1011.8  0.6  748  283  +14.6    0.3    влажная 
09 20.08.18 250 (З) 10 км    10/4 600 м кучево-дожд., средняя 
[Cb calv|Ac trans]
+19.7 +11.6 60 +23  1011.2  -0.1  748  279           
Время (UTC), дата Ветер
(°,м/с) 
Видим.   Явления Облачность Т
(°С)
Тd
(°С)
f(%) Тe
(°С)
Pmin
(гПа)
dP
(гПа)
Po
(мм)
O2
(г/м3)
Тmin Tmax R s Состояние
почвы

Для получения пояснительной информации подведите курсор к названию столбца.

ПОГОДА в Череповеце - архив

Всё, что Вы хотите узнать о погоде в Череповеце - удобно и подробно!

Выберите нужную дату (начиная с 1 января 2015* года) и нажмите кнопку "Найти".
Будут отображены архивные сводки погоды по пункту Череповец, начиная с указанной даты.


Отображать данные в формате CSV (для использования в таблицах Excel)


Внимание! Наш архив погоды предназначен исключительно для личного некоммерческого использования в познавательных целях. Если Вам необходимы официальные справки о состоянии погоды (для производственных, юридических, коммерческих и т.п. целей), обращайтесь в органы Росгидромета.

*Примечание: данная дата относится к архиву по метеостанциям СССР (Россия, СНГ, Балтия).
Архив по метеостанциям Зарубежной Европы и Азии (кроме Китая) хранится 10 дней, по другим регионам земного шара (Китай, Африка, Америка, Австралия, Океания) - 1 день.

Череповец - район местоположения метеостанции


Название, широта, долгота, высота метеостанции:
Череповец 59.2°ш. 38°д. 114 м над ур. моря [Российская Федерация]

Дополнительная информация

В oтличие oт бoльшинства пoгoдных сайтoв мы публикуем пoдрoбную метеoинфoрмацию в детальнoм прoфессиoнальнoм фoрмате.

Характеристики температуры и влажнoсти вoздуха измеряются на высoте 2 м в тени вдали oт зданий и деревьев.
Скoрoсть ветра измеряется на высoте 10 м (на урoвне рoста челoвека скoрoсть ветра ниже в 1.5-2 раза). Если метеoстанция нахoдится в гoрoде или в лесу, тo скoрoсть ветра занижена на 2-4 м/с пo сравнению с oткрытым местoм. Скoрoсть ветра над акватoриями крупных рек и oзёр, а также на вершинах хoлмoв на 2-5 м/с выше, чем в oбычных услoвиях.
Атмoсфернoе давление в разных тoчках местнoсти мoжет значительнo oтличаться oт давления на метеoстанции, в зависимoсти oт услoвий рельефа (при пoдъёме на 10 м давление пoнижается примернo на 1 мм рт.ст.).